This demonstration page uses our WeatherBlox Daily Observations layout. Learn more.

Left ArrowRight Arrow

Hourly Observations for June 6, 2021

Temp ( °F °C ) Dew Point ( °F °C ) Humidity (%) Winds ( mph kmh ) Pressure ( in mb ) Visibility ( mi km ) Precip ( " mm )
12:53 am 00:53 Clear 78 25.6 57 13.9 48 48 SE 15 24 29.62 1003 10 16 0.00 0.00
1:53 am 01:53 Clear 77 25 58 14.4 52 52 SE 15 24 29.62 1003 10 16 0.00 0.00
2:53 am 02:53 Clear 76 24.4 58 14.4 54 54 SE 14 22 29.58 1002 10 16 0.00 0.00
3:53 am 03:53 Clear 75 23.9 59 15 58 58 SSE 15 24 29.59 1002 10 16 0.00 0.00
4:53 am 04:53 Clear 73 22.8 60 15.6 64 64 SE 10 17 29.59 1002 10 16 0.00 0.00
5:53 am 05:53 Clear 72 22.2 60 15.6 66 66 ESE 15 24 29.59 1002 10 16 0.00 0.00
6:53 am 06:53 Sunny 70 21.1 61 16.1 73 73 SE 14 22 29.61 1003 10 16 0.00 0.00
7:53 am 07:53 Sunny 71 21.7 63 17.2 76 76 SE 17 28 29.62 1003 10 16 0.00 0.00
8:53 am 08:53 Sunny 74 23.3 63 17.2 69 69 SSE 15 24 29.64 1004 10 16 0.00 0.00
9:53 am 09:53 Sunny 79 26.1 62 16.7 56 56 SSE 12 19 29.63 1003 10 16 0.00 0.00
10:53 am 10:53 Sunny 83 28.3 62 16.7 49 49 SSE 9 15 29.62 1003 10 16 0.00 0.00
11:53 am 11:53 Sunny 87 30.6 59 15 39 39 undefined N/A 29.62 1003 10 16 0.00 0.00
12:53 pm 12:53 Sunny 91 32.8 56 13.3 31 31 SW 6 9 29.60 1003 10 16 0.00 0.00
1:53 pm 13:53 Sunny 96 35.6 49 9.4 20 20 W 8 13 29.57 1002 10 16 0.00 0.00
2:53 pm 14:53 Sunny 97 36.1 48 8.9 19 19 W 10 17 29.55 1001 10 16 0.00 0.00
3:53 pm 15:53 Sunny 97 36.1 45 7.2 17 17 W 13 20 29.54 1001 10 16 0.00 0.00
4:53 pm 16:53 Sunny 100 37.8 43 6.1 14 14 W 8 13 29.52 1000 10 16 0.00 0.00
5:53 pm 17:53 Sunny 102 38.9 42 5.6 13 13 W 13 20 29.50 999 10 16 0.00 0.00
6:53 pm 18:53 Sunny 100 37.8 42 5.6 14 14 VRB 6 9 29.49 999 10 16 0.00 0.00
7:53 pm 19:53 Sunny 100 37.8 42 5.6 14 14 Calm 29.49 999 10 16 0.00 0.00
8:53 pm 20:53 Sunny 97 36.1 44 6.7 16 16 ESE 3 6 29.50 999 10 16 0.00 0.00
9:53 pm 21:53 Partly Cloudy 96 35.6 41 5 15 15 N 23 37 29.53 1000 10 16 0.00 0.00
10:53 pm 22:53 Mostly Clear 93 33.9 45 7.2 19 19 NNW 23 37 29.57 1001 10 16 0.00 0.00
11:06 pm 23:06 Partly Cloudy with Light Rain 84 28.9 57 13.9 40 40 NNE 16 26 29.56 1001 10 16 0.00 0.00
11:53 pm 23:53 Partly Cloudy 88 31.1 50 10 27 27 ENE 20 31 29.60 1002 10 16 0.00 0.00

Powered by AerisWeather